WB8ZTP Weather Reports


Display with metric or nautical units.
time (UTC)temp
F
wind
direction
speed
MPH
gust
MPH
rain 1hr
in
rain 24hr
in
rain mn
in
humidity
%
barometer
mb
20260902090029 72 182 1.0 3.0 0.00 0.00 0.00 91 1018.3
20260902084537 72 182 1.0 3.0 0.00 0.00 0.00 91 1018.2
20260902083025 72 182 0.0 2.0 0.00 0.00 0.00 91 1018.2
20260902081526 72 182 1.0 3.0 0.00 0.00 0.00 91 1018.2
20260902080023 72 182 0.0 2.0 0.00 0.00 0.00 91 1018.1
20260902074523 72 182 0.0 2.0 0.00 0.00 0.00 91 1018.0
20260902073022 72 182 0.0 0.0 0.00 0.00 0.00 91 1018.0
20260902071532 72 182 0.0 0.0 0.00 0.00 0.00 91 1018.0
20260902070019 72 182 0.0 0.0 0.00 0.00 0.00 91 1017.9
20260902064524 73 182 0.0 0.0 0.00 0.00 0.00 90 1017.9
20260902063028 73 182 0.0 0.0 0.00 0.00 0.00 90 1017.9
20260902061514 73 182 0.0 1.0 0.00 0.00 0.00 90 1017.8
20260902060012 74 182 0.0 3.0 0.00 0.00 0.00 89 1017.6
20260902054518 74 182 0.0 0.0 0.00 0.00 0.00 89 1017.7
20260902053016 76 182 0.0 3.0 0.00 0.00 0.00 87 1017.6
20260902051502 77 182 0.0 3.0 0.00 0.00 0.00 86 1017.5
20260902050101 77 196 1.0 4.0 0.00 0.00 0.00 84 1017.5
20260902044556 78 202 1.0 4.0 0.00 0.00 0.00 83 1017.5
20260902043059 80 194 2.0 5.0 0.00 0.00 0.00 81 1017.7
20260902041548 80 199 2.0 8.0 0.00 0.00 0.00 80 1017.5
20260902040045 81 217 2.0 8.0 0.00 0.00 0.00 78 1017.3
20260902034545 80 161 2.0 6.0 0.00 0.00 0.00 79 1017.1
20260902033057 81 215 2.0 7.0 0.00 0.00 0.00 79 1017.2
20260902031543 81 232 2.0 7.0 0.00 0.00 0.00 79 1017.0
20260902030043 80 211 3.0 8.0 0.00 0.00 0.00 79 1016.8
20260902024543 80 186 2.0 6.0 0.00 0.00 0.00 81 1016.9
20260902023046 80 178 2.0 6.0 0.00 0.00 0.00 82 1017.0
20260902021541 80 187 2.0 6.0 0.00 0.00 0.00 82 1017.0
20260902020041 79 203 3.0 7.0 0.00 0.00 0.00 83 1016.9
20260902014541 79 230 2.0 7.0 0.00 0.00 0.00 84 1017.0
20260902013040 77 194 3.0 6.0 0.00 0.00 0.00 87 1016.9
20260902011540 76 199 1.0 8.0 0.00 0.00 0.00 90 1016.8
20260902010046 76 161 0.0 2.0 0.00 0.00 0.00 90 1016.9
20260902004539 76 161 0.0 2.0 0.00 0.00 0.00 90 1016.9
20260902003038 77 161 0.0 2.0 0.00 0.00 0.00 89 1016.9
20260902001537 78 161 0.0 2.0 0.00 0.00 0.00 88 1017.0
20260902000038 79 161 0.0 2.0 0.00 0.00 0.00 87 1017.2
20260901234534 81 161 0.0 3.0 0.00 0.00 0.00 85 1017.3
20260901233032 82 161 0.0 3.0 0.00 0.00 0.00 85 1017.5
20260901231532 84 161 0.0 5.0 0.00 0.00 0.00 82 1017.4
20260901230041 85 239 1.0 4.0 0.00 0.00 0.00 82 1017.7
20260901224531 85 201 1.0 4.0 0.00 0.00 0.00 82 1017.8
20260901223030 85 202 1.0 5.0 0.00 0.00 0.00 82 1017.8
20260901221538 84 192 1.0 3.0 0.00 0.00 0.00 82 1017.8
20260901220030 85 192 1.0 4.0 0.00 0.00 0.00 81 1017.9
20260901214529 86 195 2.0 5.0 0.00 0.00 0.00 76 1018.0
20260901213054 86 171 2.0 10.0 0.00 0.00 0.00 76 1018.0
20260901211539 87 201 1.0 10.0 0.00 0.00 0.00 74 1017.8
20260901210035 86 193 4.0 10.0 0.00 0.00 0.00 73 1017.7
20260901204526 87 197 3.0 7.0 0.00 0.00 0.00 76 1017.8
20260901203032 86 182 2.0 6.0 0.00 0.00 0.00 82 1017.8
20260901201518 84 163 0.0 5.0 0.00 0.00 0.00 86 1017.7
20260901200034 81 195 0.0 5.0 0.00 0.00 0.00 88 1017.7
20260901194512 78 167 1.0 4.0 0.00 0.00 0.00 91 1017.8
20260901193017 75 173 0.0 3.0 0.00 0.00 0.00 91 1017.6
20260901191513 75 173 0.0 2.0 0.00 0.00 0.00 90 1017.9
20260901190010 74 173 1.0 5.0 0.00 0.00 0.00 89 1018.6
20260901184509 75 202 2.0 5.0 0.00 0.00 0.00 90 1018.6
20260901183012 75 157 0.0 3.0 0.00 0.00 0.00 90 1018.8
20260901181512 76 153 0.0 4.0 0.00 0.00 0.00 91 1019.3
20260901180007 76 28 0.0 1.0 0.00 0.00 0.00 91 1019.4
20260901174508 75 157 0.0 1.0 0.00 0.00 0.00 91 1019.5
20260901173007 75 159 0.0 0.0 0.00 0.00 0.00 91 1019.9
20260901171506 75 159 0.0 2.0 0.00 0.00 0.00 91 1019.9
20260901170007 74 159 1.0 3.0 0.00 0.00 0.00 91 1019.8
20260901164510 73 159 0.0 2.0 0.00 0.00 0.00 91 1019.7
20260901163005 73 159 0.0 3.0 0.00 0.00 0.00 91 1019.7
20260901161505 73 155 2.0 4.0 0.00 0.00 0.00 91 1019.7
20260901160004 73 34 0.0 2.0 0.00 0.00 0.00 90 1019.9
20260901154512 75 34 2.0 11.0 0.00 0.00 0.00 88 1021.1
20260901153001 77 5 2.0 11.0 0.00 0.00 0.00 85 1020.9
20260901151558 80 17 2.0 6.0 0.00 0.00 0.00 82 1020.3
20260901150054 81 238 0.0 6.0 0.00 0.00 0.00 81 1019.5
20260901144554 81 224 2.0 9.0 0.00 0.00 0.00 80 1019.1
20260901143053 80 333 3.0 7.0 0.00 0.00 0.00 81 1019.1
20260901141555 79 234 1.0 7.0 0.00 0.00 0.00 84 1019.0
20260901140044 78 230 2.0 7.0 0.00 0.00 0.00 83 1018.9
20260901134542 78 239 4.0 9.0 0.00 0.00 0.00 84 1018.9
20260901133041 77 216 3.0 7.0 0.00 0.00 0.00 85 1018.8
20260901131537 76 213 2.0 7.0 0.00 0.00 0.00 87 1019.0
20260901130033 75 212 3.0 7.0 0.00 0.00 0.00 87 1019.1
20260901124531 74 229 4.0 7.0 0.00 0.00 0.00 88 1019.2
20260901123029 74 206 3.0 7.0 0.00 0.00 0.00 89 1019.4
20260901121534 74 176 3.0 7.0 0.00 0.00 0.00 89 1019.2
20260901120038 74 226 2.0 6.0 0.00 0.00 0.00 89 1019.1
20260901114524 74 209 2.0 5.0 0.00 0.00 0.00 89 1018.9
20260901113023 73 227 2.0 5.0 0.00 0.00 0.00 89 1018.8
20260901111522 73 184 2.0 5.0 0.00 0.00 0.00 90 1018.7
20260901110023 73 220 3.0 6.0 0.00 0.00 0.00 90 1018.5
20260901104523 73 190 3.0 6.0 0.00 0.00 0.00 90 1018.4
20260901103018 73 192 2.0 6.0 0.00 0.00 0.00 90 1018.4
20260901101519 73 210 3.0 7.0 0.00 0.00 0.00 91 1018.3
20260901100017 73 192 1.0 6.0 0.00 0.00 0.00 91 1018.1
20260901094520 73 202 2.0 5.0 0.00 0.00 0.00 91 1018.1
20260901093016 72 184 2.0 6.0 0.00 0.00 0.00 91 1018.0
20260901091516 72 172 1.0 4.0 0.00 0.00 0.00 90 1018.1